Regional Weather Roundup
Issued by NWS

Home | Current Version | Previous Version | Graphics & Text | Print | Product List | Glossary On
Versions: 1 2 3 4 5 6 7 8 9 10 11 12 13 14 15 16 17 18 19 20 21 22 23 24 25 26 27
000
ASUS45 KSLC 230610
RWRUT

UTAH REGIONAL WEATHER ROUNDUP
NATIONAL WEATHER SERVICE SALT LAKE CITY UT
1200 AM MDT FRI JUN 23 2017

UTZ001>011-023>025-230700-

NORTHERN UTAH

CITY           SKY/WX    TMP DP  RH WIND       PRES   REMARKS
BRIGHAM CITY   CLEAR     68  23  17 CALM      30.10R
HILL AFB       CLEAR     67  36  31 E3        30.11R
LOGAN          CLEAR     62  37  39 S9        30.11R
OGDEN          CLEAR     67  35  30 NW8       30.08R
SALT LAKE CITY CLEAR     72  48  42 NW7       30.06R
TOOELE VALLEY  CLEAR     57  32  38 S3        30.09R
WENDOVER         N/A     74  24  15 NW13      30.10R
HEBER CITY     CLEAR     54  32  43 E7        30.14R
WEST JORDAN    CLEAR     69  43  38 W8        30.09R

$$

UTZ011>015-024>027-230700-

CENTRAL/NORTHEAST UTAH

CITY           SKY/WX    TMP DP  RH WIND       PRES   REMARKS
PROVO AIRPORT  CLEAR     65  39  38 E6        30.07R
MOAB/CANYONLAN CLEAR     82  24  12 NW15      29.93R
DELTA          CLEAR     68  30  24 NE6       30.07R
PRICE          CLEAR     69  25  19 NW9       30.10R
ROOSEVELT      CLEAR     72  27  18 W8        30.08R
VERNAL         CLEAR     73  35  25 N9        30.06R

$$

UTZ013>016-019>022-027-230700-

SOUTHERN UTAH

CITY           SKY/WX    TMP DP  RH WIND       PRES   REMARKS
BRYCE CANYON   CLEAR     50  33  52 CALM      30.25R
CEDAR CITY     CLEAR     70  35  27 N12       30.08R
MILFORD        CLEAR     69  24  18 VRB7      30.07R
ST GEORGE      CLEAR     92  28  10 S5        29.79R
HANKSVILLE     CLEAR     81  28  15 NW5       29.99R
BLANDING       CLEAR     67  35  31 N9        30.10S

$$

REGIONAL REPORTS     COLORADO/ARIZONA

CITY           SKY/WX    TMP DP  RH WIND       PRES   REMARKS
CRAIG, CO      CLEAR     61  28  28 SW12      30.12R
GRAND JUNCTION CLEAR     77  21  12 NW15      29.97R
RIFLE, CO      CLOUDY    67  40  37 SE3       30.05R
MONTROSE, CO   CLEAR     71  36  27 SE7       30.03R
CORTEZ, CO     CLEAR     61  35  37 NE7       30.04R
COLORADO CITY    N/A     64  28  25 SE7       30.01S
PAGE, AZ       CLEAR     90  30  11 CALM      29.92R
GRAND CANYON   CLEAR     56  21  25 CALM      30.19R
KINGMAN, AZ    CLEAR     91  40  16 S16       29.89S
FLAGSTAFF, AZ  CLEAR     61  28  28 CALM      30.22R

$$

REGIONAL REPORTS    NEVADA/IDAHO/WYOMING

CITY           SKY/WX    TMP DP  RH WIND       PRES   REMARKS
LAS VEGAS, NV  PTCLDY   101  19   5 S8        29.73R HX  93
ELY, NY        CLEAR     67  28  23 N9        30.18S
ELKO, NV       CLEAR     68  26  20 N12       30.18R
POCATELLO, ID  CLEAR     60  30  32 NW8       30.16R
BURLEY, ID     CLEAR     63  28  26 SW15G23   30.11R
FORT BRIDGER,    N/A     57  34  41 SW5       30.28R
EVANSTON, WY   CLEAR     58  32  37 N7        30.26R
ROCK SPRINGS,  CLEAR     57  24  28 NE20G25   30.24R
KEMMERER, WY     N/A     50  34  53 N6        30.27R

$$




USA.gov is the U.S. government's official web portal to all federal, state and local government web resources and services.